Flag for United Kingdom Weather past 2 weeks in Guildford, England, United Kingdom

Now
55 °F

Passing clouds.


Feels Like: 51 °F
Forecast: N/A
Wind: 20 mph from Southwest

Location: Farnborough Airport

Current Time: Dec 18, 2014 at 5:05:22 PM

Latest Report: Dec 18, 2014 at 4:20 PM


Visibility: N/A

Pressure: 29.86 "Hg

Humidity: 88%

Dew point: 52 °F

Location of GuildfordLocation

Historic Weather in Guildford — Graph

°F

Guildford temperature yesterday

Maximum temperature yesterday: 55 °F (at 12:50 PM)
Minimum temperature yesterday: 52 °F (at 6:50 AM)
Average temperature yesterday: 53 °F

Past Weeks' High & Low Weather Summary

 TemperatureHumidityPressure
High55 °F (Dec 17, 12:50 PM)100% (Dec 4, 11:50 AM)30.39 "Hg (Dec 4, 11:50 AM)
Low27 °F (Dec 9, 6:50 AM)57% (Dec 7, 4:20 PM)29.27 "Hg (Dec 12, 7:20 AM)
Average43 °F85%29.96 "Hg
* Reported Dec 3 3:20 PM — Dec 18 3:20 PM, Guildford, Weather by CustomWeather, © 2014

Note: Actual official high and low records may vary slightly from our data, if they occured in-between our weather recording intervals... More about our weather records

Advertising

Guildford weather history for previous 24 hours

 ConditionsComfort  
Time TempWeatherWind HumidityBarometerVisibility
3:20 PM
Dec 18
54 °FDrizzle. Partly sunny.20 mph94%29.86 "Hg5 mi
2:50 PM54 °FPartly sunny.20 mph94%29.86 "HgN/A
2:20 PM54 °FPartly sunny.22 mph88%29.86 "HgN/A
1:50 PM54 °FPartly sunny.22 mph88%29.86 "HgN/A
1:20 PM54 °FPartly sunny.21 mph88%29.86 "HgN/A
12:50 PM55 °FPartly sunny.23 mph82%29.86 "HgN/A
12:20 PM54 °FScattered showers. Partly sunny.22 mph88%29.86 "HgN/A
11:50 AM54 °FScattered showers. Partly sunny.17 mph94%29.86 "HgN/A
11:20 AM54 °FDrizzle. Partly sunny.18 mph94%29.89 "Hg5 mi
10:20 AM54 °FDrizzle. Partly sunny.16 mph94%29.86 "HgN/A
9:50 AM55 °FPartly sunny.18 mph88%29.86 "HgN/A
9:20 AM55 °FPartly sunny.20 mph88%29.86 "HgN/A
8:50 AM55 °FPartly sunny.16 mph88%29.86 "HgN/A
8:20 AM54 °FPartly sunny.17 mph94%29.86 "HgN/A
7:50 AM54 °FPassing clouds.14 mph88%29.83 "HgN/A
7:20 AM54 °FPassing clouds.16 mph88%29.83 "HgN/A
6:50 AM54 °FPassing clouds.16 mph94%29.83 "HgN/A
9:20 PM
Dec 17
52 °FPassing clouds.18 mph100%29.80 "HgN/A
8:50 PM52 °FPassing clouds.16 mph100%29.80 "HgN/A
8:20 PM52 °FPassing clouds.14 mph94%29.80 "HgN/A
7:50 PM52 °FPassing clouds.14 mph100%29.80 "HgN/A
7:20 PM52 °FPassing clouds.14 mph94%29.80 "HgN/A
6:50 PM54 °FPassing clouds.13 mph94%29.80 "HgN/A
6:20 PM52 °FLight rain. Passing clouds.12 mph94%29.80 "HgN/A
5:50 PM54 °FLight rain. Passing clouds.13 mph88%29.80 "HgN/A
5:20 PM52 °FPassing clouds.14 mph94%29.77 "Hg4 mi
Weather by CustomWeather, © 2014

See weather overviewHow to use our weather pages